Weather History for Goodland, KS

Change the Weather History Date:

Tuesday, November 22, 2011

  Actual Average Record
Temperature  
Mean Temperature 41 °F 36 °F  
Max Temperature 61 °F 49 °F 82 °F (1998)
Min Temperature 20 °F 23 °F -4 °F (1929)
Degree Days  
Heating Degree Days 24 29  
Month to date heating degree days 573 530  
Since 1 July heating degree days 1042 1070  
Cooling Degree Days 0 0  
Month to date cooling degree days 0 0  
Year to date cooling degree days 1116 941  
Moisture  
Dew Point 23 °F    
Average Humidity 58    
Maximum Humidity 92    
Minimum Humidity 23    
Precipitation  
Precipitation 0.00 in 0.02 in 0.23 in (1994)
Month to date precipitation 0.28 0.56  
Year to date precipitation 18.89 19.05  
Snow  
Snow 0.00 in 0.10 in - ()
Month to date snowfall 3.1 3.1  
Since 1 July snowfall 3.3 5.7  
Since 1 September snowfall 3.3 5.7  
Snow Depth 0.00 in    
Sea Level Pressure  
Sea Level Pressure 30.14 in    
Wind  
Wind Speed 10 mph (WNW)    
Max Wind Speed 25 mph    
Max Gust Speed 30 mph    
Visibility 10 miles    
Events      
T = Trace of Precipitation, MM = Missing Value Source: NWS Daily Summary

Daily Weather History Graph

Daily Weather History Graph

Search for Another Location

Airport:

Trip Planner

Search our weather history database for the weather conditions in past years. The results will help you decide how hot, cold, wet, or windy it might be!

Date:

Astronomy

Nov. 22, 2011 Rise Set
Actual Time 6:38 AM MST 4:27 PM MST
Civil Twilight 6:08 AM MST 4:56 PM MST
Nautical Twilight 5:36 AM MST 5:29 PM MST
Astronomical Twilight 5:04 AM MST 6:01 PM MST
Moon 3:31 AM MST (11/22) 2:27 PM MST (11/22)
Length of Visible Light 10h 47m
Length of Day
9h 49m
Waning Crescent, 9% of the Moon is Illuminated
Nov 22
Waning Crescent
Nov 24
New
Dec 2
First Quarter
Dec 10
Full
Dec 17
Last Quarter

Hourly Weather History & Observations

Time (MST) Temp. Windchill Dew Point Humidity Pressure Visibility Wind Dir Wind Speed Gust Speed Precip Events Conditions
12:53 AM 23.0 °F 17.0 °F 19.9 °F 88% 30.08 in 10.0 mi West 4.6 mph - N/A   Clear
1:53 AM 21.2 °F 14.9 °F 19.4 °F 93% 30.03 in 10.0 mi WNW 4.6 mph - N/A   Clear
2:53 AM 23.0 °F 14.7 °F 19.9 °F 88% 30.10 in 10.0 mi WNW 6.9 mph - N/A   Clear
3:53 AM 25.0 °F 14.2 °F 21.0 °F 85% 30.11 in 10.0 mi WNW 11.5 mph - N/A   Clear
4:53 AM 30.0 °F 20.5 °F 25.0 °F 82% 30.12 in 10.0 mi WNW 11.5 mph - N/A   Clear
5:53 AM 28.9 °F 19.8 °F 25.0 °F 85% 30.16 in 10.0 mi WNW 10.4 mph - N/A   Clear
6:53 AM 30.0 °F 20.0 °F 25.0 °F 82% 30.17 in 10.0 mi WNW 12.7 mph - N/A   Clear
7:53 AM 35.1 °F 27.9 °F 27.0 °F 72% 30.16 in 10.0 mi West 9.2 mph - N/A   Clear
8:53 AM 42.8 °F 36.6 °F 30.2 °F 61% 30.13 in 10.0 mi WNW 11.5 mph - N/A   Clear
9:53 AM 50.0 °F - 27.0 °F 41% 30.17 in 10.0 mi NW 16.1 mph 24.2 mph N/A   Clear
10:53 AM 54.0 °F - 25.0 °F 33% 30.15 in 10.0 mi NNW 19.6 mph 25.3 mph N/A   Clear
11:53 AM 57.0 °F - 21.9 °F 26% 30.11 in 10.0 mi NNW 18.4 mph - N/A   Clear
12:53 PM 59.0 °F - 24.1 °F 26% 30.10 in 10.0 mi NW 17.3 mph 21.9 mph N/A   Clear
1:53 PM 57.9 °F - 23.0 °F 26% 30.10 in 10.0 mi NNW 11.5 mph - N/A   Clear
2:53 PM 60.1 °F - 23.0 °F 24% 30.09 in 10.0 mi WNW 10.4 mph - N/A   Clear
3:53 PM 54.0 °F - 23.0 °F 30% 30.12 in 10.0 mi WNW 4.6 mph - N/A   Clear
4:53 PM 44.1 °F - 21.9 °F 42% 30.15 in 10.0 mi Calm Calm - N/A   Clear
5:53 PM 43.0 °F - 21.9 °F 43% 30.18 in 10.0 mi Calm Calm - N/A   Clear
6:53 PM 32.0 °F 27.5 °F 19.9 °F 61% 30.21 in 10.0 mi SW 4.6 mph - N/A   Clear
7:53 PM 35.1 °F 29.3 °F 21.9 °F 59% 30.21 in 10.0 mi SSW 6.9 mph - N/A   Clear
8:53 PM 32.0 °F 24.2 °F 21.0 °F 64% 30.19 in 10.0 mi WSW 9.2 mph - N/A   Clear
9:53 PM 37.0 °F 28.9 °F 23.0 °F 57% 30.17 in 10.0 mi WSW 12.7 mph - N/A   Clear
10:53 PM 37.0 °F 29.3 °F 23.0 °F 57% 30.17 in 10.0 mi West 11.5 mph - N/A   Clear
11:53 PM 36.0 °F 27.5 °F 23.0 °F 59% 30.16 in 10.0 mi West 12.7 mph - N/A   Clear